Regional Weather Roundup
Issued by NWS

Home | Current Version | Previous Version | Graphics & Text | Print | Product List | Glossary On
Versions: 1 2 3 4 5 6 7 8 9 10 11 12 13 14 15 16 17 18 19 20 21 22 23 24 25 26 27 28 29 30 31 32 33 34 35 36 37 38 39 40 41 42 43 44 45 46 47 48 49 50
000
ASUS43 KIND 081809
RWRIN

WEATHER ROUNDUP FOR INDIANA
NATIONAL WEATHER SERVICE INDIANAPOLIS IN
100 PM EST MON FEB 08 2016

NOTE: "FAIR" INDICATES FEW OR NO CLOUDS BELOW 12,000 FEET WITH NO
SIGNIFICANT WEATHER AND/OR OBSTRUCTIONS TO VISIBILITY.

* - STATION DOES NOT REPORT WEATHER SUCH AS PRECIPITATION OR FOG.

+ - STATION NOT QUALITY CONTROLLED BY THE NATIONAL WEATHER SERVICE.
    USE DATA WITH CAUTION...ESPECIALLY DEWPOINT AND RELATIVE
    HUMIDITY OBSERVATIONS.

INZ001>003-010>013-019-020-081900-
NORTHWEST INDIANA

CITY           SKY/WX    TMP DP  RH WIND       PRES   REMARKS
GARY /AIRPORT/ CLOUDY    32  21  64 W18       29.67S WCI  20
KNOX *+          N/A    N/A N/A N/A MISG        N/A
LA PORTE +     CLOUDY    33  29  83 NW10      29.65S WCI  25
6HR MIN TEMP:  28; 6HR MAX TEMP:  34;

MICHIGAN CITY+ CLOUDY    32  27  80 W7        29.66S WCI  26
MONTICELLO +   CLOUDY    30  22  73 W14G20    29.67S WCI  19
6HR MIN TEMP:  30; 6HR MAX TEMP:  32;

RENSSELAER +   CLOUDY    30  23  74 W13       29.68S WCI  20
VALPARAISO     CLOUDY    31  24  75 W13       29.65F WCI  21
6HR MIN TEMP:  28; 6HR MAX TEMP:  33; 6HR PCP: TRACE;


$$

LMZ046-743>745-081900-
SOUTHERN LAKE MICHIGAN

STATION/POSITION TIME  TEMP    WIND        PRES    WAVE
                       AIR SEA DIR/SP/G            HT
                 (UTC) (F)     (DEG/KT/KT) (MB)    (FT)
BURNS HARBOR     1700   31     290/ 14/ 17 1005.1S
MICHIGAN CITY    1700   31     240/ 16/ 17   N/A

$$

INZ004-005-014>016-021>024-081900-
NORTH CENTRAL INDIANA

CITY           SKY/WX    TMP DP  RH WIND       PRES   REMARKS
ELKHART          N/A     36  30  80 W10       29.62F
GOSHEN         CLOUDY    36  29  75 W10       29.61F
6HR MIN TEMP:  27; 6HR MAX TEMP:  37;

LOGANSPORT +   MIX PCPN  30  27  86 NW9       29.66S WCI  22
PERU/GRISSOM   DRIZZLE   33  32  96 W10       29.62F WCI  25
6HR MIN TEMP:  31; 6HR MAX TEMP:  35; 6HR PCP: TRACE;

ROCHESTER +    CLOUDY    36  30  80 W7        29.64S
SOUTH BEND     CLOUDY    31  28  89 NW9       29.63F WCI  23
6HR MIN TEMP:  25; 6HR MAX TEMP:  32;

WARSAW +       CLOUDY    36  28  75 W12       29.61F

$$

INZ006>009-017-018-025>027-081900-
NORTHEAST INDIANA

CITY           SKY/WX    TMP DP  RH WIND       PRES   REMARKS
ANGOLA *+      CLOUDY    34  28  80 W5        29.60F WCI  30
AUBURN +       PTSUNNY   36  30  80 W10       29.61F
FORT WAYNE     PTSUNNY   37  29  72 W12       29.62F
6HR MIN TEMP:  31; 6HR MAX TEMP:  37; 6HR PCP: TRACE;

HUNTINGTON +   CLOUDY    37  24  59 W5        29.61F
6HR MIN TEMP:  29; 6HR MAX TEMP:  39;


$$

INZ028-029-035-036-043>045-051>053-081900-
WEST CENTRAL INDIANA

CITY           SKY/WX    TMP DP  RH WIND       PRES   REMARKS
GREENCASTLE +  CLOUDY    32  23  69 NW9G16    29.68S WCI  24
LAFAYETTE      CLOUDY    28  24  85 W10G22    29.69S FOG     WCI  19
6HR MIN TEMP:  28; 6HR MAX TEMP:  32;

TERRE HAUTE    CLOUDY    28  21  75 NW15G24   29.73S WCI  16
6HR MIN TEMP:  28; 6HR MAX TEMP:  34; 6HR PCP:  0.02;


$$

INZ030>032-037>040-046>048-054>057-064-065-081900-
CENTRAL INDIANA

CITY           SKY/WX    TMP DP  RH WIND       PRES   REMARKS
FRANKFORT +    CLOUDY    31  29  92 W15       29.68S WCI  20
6HR MIN TEMP:  30; 6HR MAX TEMP:  35;

GREENWOOD *+   CLOUDY    39  34  81 NW7       29.65F
INDIANAPOLIS   CLOUDY    38  29  70 W7        29.63F
6HR MIN TEMP:  33; 6HR MAX TEMP:  39; 6HR PCP: TRACE;

-EAGLE CREEK   CLOUDY    37  29  72 W7        29.64F
6HR MIN TEMP:  33; 6HR MAX TEMP:  37; 6HR PCP: TRACE;

KOKOMO *+        N/A     36  30  80 W10       29.64F
6HR MIN TEMP:  32; 6HR MAX TEMP:  37;

MARION +       MOSUNNY   37  23  55 W13       29.63F
MT COMFORT *+  CLOUDY    36  28  75 W7        29.64F
SHELBYVILLE    CLOUDY    38  30  73 W9        29.64F
6HR MIN TEMP:  33; 6HR MAX TEMP:  39; 6HR PCP: TRACE;

ZIONSVILLE +   LGT RAIN  32  30  93 W9G18     29.65F WCI  24
6HR MIN TEMP:  32; 6HR MAX TEMP:  35;


$$

INZ033-034-041-042-049-050-058-059-081900-
EAST CENTRAL INDIANA

CITY           SKY/WX    TMP DP  RH WIND       PRES   REMARKS
MUNCIE         CLOUDY    38  30  73 W9        29.62F
6HR MIN TEMP:  34; 6HR MAX TEMP:  38; 6HR PCP: TRACE;


$$

INZ060-061-067>069-081>083-085>088-081900-
SOUTHWEST INDIANA

CITY           SKY/WX    TMP DP  RH WIND       PRES   REMARKS
EVANSVILLE     CLOUDY    34  25  69 W15G25    29.78S WCI  24
6HR MIN TEMP:  34; 6HR MAX TEMP:  39; 6HR PCP:  0.02;

HUNTINGBURG *+ CLOUDY    37  28  70 W18G25    29.73F
6HR MIN TEMP:  34; 6HR MAX TEMP:  41; 6HR PCP:  0.01;

WASHINGTON +   LGT SNOW  32  31  96 NW16G22   29.72S WCI  21
6HR MIN TEMP:  32; 6HR MAX TEMP:  36;


$$

INZ062-063-066-070>080-084-089>092-081900-
SOUTH CENTRAL AND SOUTHEAST INDIANA

CITY           SKY/WX    TMP DP  RH WIND       PRES   REMARKS
BEDFORD +      CLOUDY    36  36 100 W9        29.67F
BLOOMINGTON    CLOUDY    35  33  92 W6        29.66F WCI  30
6HR MIN TEMP:  33; 6HR MAX TEMP:  37; 6HR PCP:  0.04;

MADISON *+     CLOUDY    36  34  93 W8        29.68F
NORTH VERNON + CLOUDY   N/A N/A N/A CALM      29.66F
SEYMOUR +      MOSUNNY   43  34  70 W10       29.66F

$$




USA.gov is the U.S. government's official web portal to all federal, state and local government web resources and services.